FW7889 Weather Reports


time (UTC)temp
F
wind
direction
speed
knots
gust
knots
rain 1hr
in
rain 24hr
in
rain mn
in
humidity
%
barometer
mb
20260902230514 67 221 2.6 2.6 0.00 0.00 0.00 98 1068.4
20260902225509 67 194 7.0 8.7 0.00 0.00 0.00 98 1068.5
20260902224508 67 189 5.2 7.0 0.00 0.00 0.00 97 1069.0
20260902223506 68 204 1.7 1.7 0.00 0.00 0.00 97 1068.9
20260902222504 68 203 4.3 5.2 0.00 0.00 0.00 97 1068.9
20260902221503 68 199 1.7 1.7 0.00 0.00 0.00 97 1069.1
20260902220459 68 169 4.3 6.1 0.00 0.00 0.00 97 1069.4
20260902215455 69 201 2.6 5.2 0.00 0.00 0.00 96 1070.3
20260902214450 69 238 1.7 1.7 0.00 0.00 0.00 96 1070.5
20260902213446 69 228 1.7 1.7 0.00 0.00 0.00 96 1071.5
20260902212446 70 282 1.7 1.7 0.00 0.00 0.00 95 1071.7
20260902211444 70 194 0.9 1.7 0.00 0.00 0.00 94 1071.4
20260902210445 70 268 0.0 0.0 0.00 0.00 0.00 94 1071.5
20260902205444 70 226 2.6 4.3 0.00 0.00 0.00 94 1071.5
20260902204444 70 199 1.7 1.7 0.00 0.00 0.00 93 1071.2
20260902203441 71 297 0.9 1.7 0.00 0.00 0.00 93 1071.6
20260902202436 70 249 1.7 2.6 0.00 0.00 0.00 93 1071.3
20260902201434 71 218 2.6 2.6 0.00 0.00 0.00 92 1071.6
20260902200429 71 244 2.6 2.6 0.00 0.00 0.00 92 1071.5
20260902195426 71 252 1.7 1.7 0.00 0.00 0.00 91 1071.5
20260902194425 72 242 1.7 1.7 0.00 0.00 0.00 90 1071.5
20260902193422 72 211 3.5 5.2 0.00 0.00 0.00 88 1071.2
20260902192420 72 207 6.1 7.0 0.00 0.00 0.00 88 1071.4
20260902191420 72 202 4.3 6.1 0.00 0.00 0.00 87 1071.2
20260902190416 73 243 1.7 1.7 0.00 0.00 0.00 85 1071.6
20260902185414 71 203 5.2 7.0 0.00 0.00 0.00 89 1071.3
20260902184409 71 156 3.5 5.2 0.00 0.00 0.00 91 1071.2
20260902183408 71 145 5.2 7.0 0.00 0.00 0.00 91 1071.5
20260902182406 71 196 2.6 4.3 0.00 0.00 0.00 91 1071.9
20260902181402 70 151 2.6 2.6 0.00 0.00 0.00 92 1072.0
20260902180358 70 193 2.6 4.3 0.00 0.00 0.00 93 1072.2
20260902175354 70 257 1.7 1.7 0.00 0.00 0.00 95 1072.1
20260902174353 68 221 1.7 1.7 0.00 0.00 0.00 97 1072.1
20260902173347 66 246 1.7 1.7 0.00 0.00 0.00 99 1072.2
20260902172347 66 195 2.6 4.3 0.00 0.00 0.00 99 1072.4
20260902171344 66 194 3.5 5.2 0.00 0.00 0.00 99 1072.4
20260902170341 66 205 1.7 1.7 0.00 0.00 0.00 99 1072.5
20260902165341 66 219 0.9 0.9 0.00 0.00 0.00 99 1072.6
20260902164337 66 253 1.7 1.7 0.00 0.00 0.00 99 1072.5
20260902163336 66 255 0.9 0.9 0.00 0.00 0.00 99 1072.6
20260902162336 66 260 0.9 0.9 0.00 0.00 0.00 99 1072.5
20260902161332 66 244 0.9 0.9 0.00 0.00 0.00 99 1072.4
20260902160329 66 228 0.9 1.7 0.00 0.00 0.00 99 1072.3
20260902155326 66 179 1.7 1.7 0.00 0.00 0.00 99 1072.6
20260902154323 66 239 1.7 1.7 0.00 0.00 0.00 99 1072.6
20260902153320 66 239 2.6 2.6 0.00 0.00 0.00 99 1072.8
20260902152318 66 173 2.6 2.6 0.00 0.00 0.00 99 1072.8
20260902151314 66 194 1.7 2.6 0.00 0.00 0.00 99 1072.7
20260902150311 66 199 2.6 4.3 0.00 0.00 0.00 99 1072.5
20260902145306 66 175 4.3 6.1 0.00 0.00 0.00 99 1072.9
20260902144303 66 211 1.7 1.7 0.00 0.00 0.00 99 1073.1
20260902143258 66 190 0.9 1.7 0.00 0.00 0.00 99 1073.0
20260902142256 65 184 3.5 5.2 0.00 0.00 0.00 99 1073.0
20260902141252 66 208 0.9 1.7 0.00 0.00 0.00 99 1072.9
20260902140247 66 238 0.9 0.9 0.00 0.00 0.00 99 1073.3
20260902135242 66 219 1.7 1.7 0.00 0.00 0.00 99 1073.1
20260902134237 66 272 0.0 0.9 0.00 0.00 0.00 99 1073.3
20260902133237 66 243 1.7 2.6 0.00 0.00 0.00 99 1073.3
20260902132234 65 198 2.6 4.3 0.00 0.00 0.00 99 1072.7
20260902131232 65 233 0.9 0.9 0.00 0.00 0.00 99 1073.0
20260902130227 65 260 0.9 0.9 0.00 0.00 0.00 99 1073.1
20260902125224 65 256 0.0 0.0 0.00 0.00 0.00 99 1073.4
20260902124221 66 243 0.9 0.9 0.00 0.00 0.00 99 1073.1
20260902123218 65 248 0.9 0.9 0.00 0.00 0.00 99 1073.0
20260902122213 65 251 0.9 0.9 0.00 0.00 0.00 99 1072.9
20260902121208 65 247 0.9 0.9 0.00 0.00 0.00 99 1072.6
20260902120206 65 176 3.5 5.2 0.00 0.00 0.00 99 1072.6
20260902115202 66 248 1.7 1.7 0.00 0.00 0.00 99 1072.6
20260902114159 66 207 1.7 1.7 0.00 0.00 0.00 99 1072.4
20260902113155 66 191 1.7 1.7 0.00 0.00 0.00 99 1072.6
20260902112152 66 232 0.9 1.7 0.00 0.00 0.00 99 1072.3
20260902111148 66 253 0.9 1.7 0.00 0.00 0.00 99 1072.1
20260902110146 66 236 0.9 0.9 0.00 0.00 0.00 99 1072.3
20260902105141 66 200 2.6 2.6 0.00 0.00 0.00 99 1072.6
20260902104137 66 259 0.0 0.0 0.00 0.00 0.00 99 1072.6
20260902103132 66 233 0.9 0.9 0.00 0.00 0.00 99 1072.5
20260902102131 66 220 0.9 0.9 0.00 0.00 0.00 99 1072.8
20260902101131 66 246 0.0 0.0 0.00 0.00 0.00 99 1072.6
20260902100127 65 199 0.9 0.9 0.00 0.00 0.00 99 1072.4
20260902095126 65 259 0.0 0.0 0.00 0.00 0.00 99 1072.8
20260902094123 65 275 0.0 0.0 0.00 0.00 0.00 99 1072.8
20260902093118 66 217 0.9 0.9 0.00 0.00 0.00 99 1072.6
20260902092113 66 226 0.0 0.9 0.00 0.00 0.00 99 1072.6
20260902091110 66 204 0.9 0.9 0.00 0.00 0.00 99 1072.7
20260902090105 65 155 1.7 1.7 0.00 0.00 0.00 99 1072.7
20260902085100 66 220 0.9 0.9 0.00 0.00 0.00 99 1072.7
20260902084058 66 177 0.9 1.7 0.00 0.00 0.00 99 1072.8
20260902083053 66 179 2.6 2.6 0.00 0.00 0.00 99 1072.6
20260902082051 65 169 1.7 1.7 0.00 0.00 0.00 99 1072.8
20260902081047 65 193 2.6 2.6 0.00 0.00 0.00 99 1072.8
20260902080045 65 216 0.9 0.9 0.00 0.00 0.00 99 1072.6
20260902075040 65 184 0.9 1.7 0.00 0.00 0.00 99 1072.6
20260902074036 65 125 2.6 2.6 0.00 0.00 0.00 99 1072.8
20260902073034 65 186 0.9 1.7 0.00 0.00 0.00 99 1072.6
20260902072032 65 145 2.6 2.6 0.00 0.00 0.00 99 1072.8
20260902071028 64 156 1.7 1.7 0.00 0.00 0.00 99 1072.7
20260902070023 64 225 0.9 0.9 0.00 0.00 0.00 99 1072.7
20260902065018 64 195 1.7 1.7 0.00 0.00 0.00 99 1072.5
20260902064015 64 250 0.9 0.9 0.00 0.00 0.00 99 1072.5
20260902063010 64 206 0.9 0.9 0.00 0.00 0.00 99 1072.7
20260902062010 63 238 0.0 0.9 0.00 0.00 0.00 99 1072.6
20260902061006 62 293 0.0 0.0 0.00 0.00 0.00 99 1072.7
20260902060004 61 304 0.0 0.0 0.00 0.00 0.00 99 1072.7
20260902055001 62 303 0.0 0.0 0.00 0.00 0.00 99 1072.7
20260902053957 62 304 0.0 0.0 0.00 0.00 0.00 99 1072.6
20260902052957 61 302 0.0 0.0 0.00 0.00 0.00 99 1072.5
20260902051953 62 310 0.0 0.0 0.00 0.00 0.00 99 1072.5
20260902050952 62 305 0.0 0.0 0.00 0.00 0.00 99 1072.6
20260902045947 61 294 0.0 0.0 0.00 0.00 0.00 99 1072.5
20260902044945 61 293 0.0 0.0 0.00 0.00 0.00 99 1072.4
20260902043942 60 296 0.0 0.9 0.00 0.00 0.00 99 1072.3
20260902042937 60 303 0.9 0.9 0.00 0.00 0.00 99 1072.2
20260902041932 60 303 0.9 0.9 0.00 0.00 0.00 99 1072.2
20260902040932 61 303 0.0 0.0 0.00 0.00 0.00 99 1072.2
20260902035931 61 300 0.0 0.0 0.00 0.80 0.80 99 1072.0
20260902034926 61 305 0.0 0.0 0.00 0.80 0.80 99 1072.2
20260902033926 62 302 0.0 0.0 0.00 0.80 0.80 99 1072.1
20260902032925 62 304 0.9 0.9 0.00 0.80 0.80 99 1071.8
20260902031920 62 296 0.0 0.0 0.00 0.80 0.80 99 1071.9
20260902030918 62 299 0.0 0.0 0.00 0.80 0.80 99 1071.9
20260902025917 62 287 0.0 0.0 0.00 0.80 0.80 99 1071.8
20260902024913 62 287 0.0 0.0 0.00 0.80 0.80 99 1071.9
20260902023909 63 284 0.0 0.0 0.00 0.80 0.80 99 1072.1
20260902022904 63 284 0.0 0.0 0.00 0.80 0.80 99 1072.1
20260902021902 63 290 0.0 0.0 0.00 0.80 0.80 99 1072.0
20260902020857 64 288 0.0 0.9 0.00 0.80 0.80 99 1072.1
20260902015854 64 266 0.0 0.9 0.00 0.80 0.80 99 1072.1
20260902014851 65 328 0.0 0.9 0.00 0.80 0.80 99 1071.6
20260902013846 65 251 0.0 0.0 0.00 0.80 0.80 99 1071.8
20260902012843 66 270 0.0 0.0 0.00 0.80 0.80 99 1071.5
20260902011840 66 260 0.9 0.9 0.00 0.80 0.80 99 1071.3
20260902010840 67 129 1.7 1.7 0.00 0.80 0.80 99 1071.5
20260902005840 67 256 0.0 0.0 0.00 0.80 0.80 99 1071.6
20260902004836 67 222 0.9 0.9 0.00 0.80 0.80 99 1071.2
20260902003831 68 234 0.0 0.9 0.00 0.80 0.80 99 1071.1
20260902002828 68 133 1.7 1.7 0.00 0.80 0.80 99 1071.3
20260902001828 68 204 0.9 0.9 0.00 0.80 0.80 99 1071.1
20260902000824 68 258 0.0 0.0 0.00 0.80 0.80 99 1070.7
20260901235819 68 267 0.0 0.0 0.00 0.80 0.80 99 1070.6
20260901234819 69 268 0.0 0.0 0.00 0.80 0.80 98 1070.5
20260901233815 69 277 0.0 0.9 0.00 0.80 0.80 97 1070.6
20260901232812 70 269 0.9 0.9 0.00 0.80 0.80 97 1070.6
20260901231809 70 199 3.5 4.3 0.00 0.80 0.80 96 1071.0
20260901230807 70 256 0.0 0.0 0.00 0.80 0.80 96 1070.7